Flag for Italy Weather past 2 weeks in Bolzano, Italy

Now
48 °F

Sunny.


Feels Like: 48 °F
Forecast: 33 / 65 °F
Wind: 1 mph from North

Location: Bolzano

Current Time: Apr 19, 2015 at 10:56:46 AM

Latest Report: Apr 19, 2015 at 9:50 AM


Visibility: 10 mi

Pressure: 30.15 "Hg

Humidity: 46%

Dew point: 28 °F

Location of BolzanoLocation

Historic Weather in Bolzano — Graph

°F

Bolzano temperature yesterday

Maximum temperature yesterday: 72 °F (at 1:50 PM)
Minimum temperature yesterday: 48 °F (at 6:50 AM)
Average temperature yesterday: 62 °F

Past Weeks' High & Low Weather Summary

 TemperatureHumidityPressure
High82 °F (Apr 13, 4:50 PM)100% (Apr 18, 7:50 AM)30.45 "Hg (Apr 18, 7:50 AM)
Low34 °F (Apr 6, 6:50 AM)10% (Apr 7, 7:50 PM)29.68 "Hg (Apr 4, 4:50 PM)
Average60 °F39%30.15 "Hg
* Reported Apr 4 9:50 AM — Apr 19 9:50 AM, Bolzano, Weather by CustomWeather, © 2015

Note: Actual official high and low records may vary slightly from our data, if they occured in-between our weather recording intervals... More about our weather records

Advertising

Bolzano weather history for previous 24 hours

 ConditionsComfort  
Time TempWeatherWind HumidityBarometerVisibility
9:50 AM
Sun, Apr 19
48 °FSunny.1 mph46%30.15 "Hg10 mi
8:50 AM39 °FSunny.1 mph61%30.18 "Hg10 mi
7:50 AM37 °FSunny.1 mph70%30.18 "Hg10 mi
6:50 AM37 °FClear.3 mph75%30.18 "Hg10 mi
10:50 PM
Sat, Apr 18
57 °FPassing clouds.10 mph18%30.09 "HgN/A
9:50 PM57 °FPassing clouds.8 mph17%30.07 "HgN/A
8:50 PM59 °FPassing clouds.14 mph16%30.04 "HgN/A
7:50 PM63 °FPassing clouds.15 mph16%29.98 "HgN/A
6:50 PM64 °FPassing clouds.15 mph16%29.95 "HgN/A
5:50 PM66 °FPassing clouds.16 mph18%29.92 "HgN/A
4:50 PM70 °FPassing clouds.14 mph17%29.89 "HgN/A
3:50 PM72 °FScattered clouds.7 mph16%29.86 "HgN/A
2:50 PM72 °FScattered clouds.8 mph19%29.86 "HgN/A
1:50 PM72 °FScattered clouds.9 mph20%29.86 "HgN/A
12:50 PM68 °FScattered clouds.6 mph40%29.89 "HgN/A
11:50 AM66 °FScattered clouds.5 mph49%29.89 "HgN/A
10:50 AM63 °FScattered clouds.3 mph56%29.92 "HgN/A
Weather by CustomWeather, © 2015

See weather overviewHow to use our weather pages